Вернуться в каталог

SL-24 DEB

АктивенPO
NORAD 33318·DEBRIS·🇷🇺 Russia

Запущен Aug 29, 2008 с Baikonur Cosmodrome

Loading…

Ближайшие Пролёты (ближайшие 24 часа)

TLE

СвежийSource: Space-Track

Эпоха: Sep 14, 2026, 14:44 UTC

1 33318U 08040G   26257.61452247  .00010109  00000-0  38432-3 0  9997
2 33318  97.9937 204.9548 0012258 138.3244 221.8929 15.26941764983366

Отслеживайте SL-24 DEB в реальном времени с AllMySat

Download on the App Store